TimeCST,TemperatureF,Dew PointF,Humidity,Sea Level PressureIn,VisibilityMPH,Wind Direction,Wind SpeedMPH,Gust SpeedMPH,PrecipitationIn,Events,Conditions,WindDirDegrees,DateUTC
12:54 AM,30.0,26.1,85,30.41,10.0,SW,3.5,-,N/A,,Clear,220,2011-12-24 06:54:00
1:54 AM,30.0,26.1,85,30.43,10.0,Calm,Calm,-,N/A,,Clear,0,2011-12-24 07:54:00
2:54 AM,28.0,25.0,88,30.45,8.0,Calm,Calm,-,N/A,,Clear,0,2011-12-24 08:54:00
3:54 AM,28.9,26.1,89,30.45,9.0,SSW,3.5,-,N/A,,Clear,210,2011-12-24 09:54:00
4:54 AM,28.9,26.1,89,30.45,9.0,Calm,Calm,-,N/A,,Clear,0,2011-12-24 10:54:00
5:54 AM,28.9,26.1,89,30.46,10.0,South,5.8,-,N/A,,Clear,190,2011-12-24 11:54:00
6:54 AM,28.9,26.1,89,30.46,10.0,SSW,5.8,-,N/A,,Clear,200,2011-12-24 12:54:00
7:54 AM,28.9,27.0,92,30.47,8.0,Calm,Calm,-,N/A,,Clear,0,2011-12-24 13:54:00
8:54 AM,34.0,30.0,85,30.47,10.0,South,6.9,-,N/A,,Clear,190,2011-12-24 14:54:00
9:54 AM,36.0,30.0,79,30.48,10.0,SSW,8.1,-,N/A,,Clear,200,2011-12-24 15:54:00
10:54 AM,37.9,30.9,76,30.47,10.0,SSW,9.2,-,N/A,,Clear,210,2011-12-24 16:54:00
11:54 AM,39.9,32.0,73,30.45,10.0,South,9.2,-,N/A,,Clear,190,2011-12-24 17:54:00
12:54 PM,41.0,32.0,70,30.43,10.0,SSW,10.4,-,N/A,,Clear,200,2011-12-24 18:54:00
1:54 PM,41.0,30.9,67,30.40,10.0,SSW,9.2,-,N/A,,Clear,200,2011-12-24 19:54:00
2:54 PM,42.1,30.9,65,30.38,10.0,South,8.1,-,N/A,,Clear,190,2011-12-24 20:54:00
3:54 PM,39.9,30.0,68,30.39,10.0,South,6.9,-,N/A,,Clear,190,2011-12-24 21:54:00
4:54 PM,37.0,30.0,76,30.40,10.0,Calm,Calm,-,N/A,,Clear,0,2011-12-24 22:54:00
5:54 PM,36.0,30.0,79,30.40,10.0,Calm,Calm,-,N/A,,Clear,0,2011-12-24 23:54:00
6:54 PM,34.0,28.9,82,30.40,10.0,SSW,3.5,-,N/A,,Clear,200,2011-12-25 00:54:00
7:54 PM,33.1,28.9,85,30.40,10.0,WSW,3.5,-,N/A,,Clear,240,2011-12-25 01:54:00
8:54 PM,32.0,28.9,88,30.40,10.0,Calm,Calm,-,N/A,,Clear,0,2011-12-25 02:54:00
9:54 PM,33.1,28.9,85,30.40,10.0,SW,3.5,-,N/A,,Clear,220,2011-12-25 03:54:00
10:54 PM,32.0,28.0,85,30.40,10.0,SW,3.5,-,N/A,,Clear,230,2011-12-25 04:54:00
11:54 PM,30.9,27.0,85,30.38,10.0,SW,3.5,-,N/A,,Clear,230,2011-12-25 05:54:00